Cabrera, Mexico

2:03 AM MST on February 26, 2017 (GMT -0700)
Tepic

Weather History for MMEP - October, 2012

Change the Weather History Date:

Wednesday, October 10, 2012

  Actual Average Record
Temperature  
Mean Temperature 76 °F -  
Max Temperature 86 °F 83 °F 92 °F (2016)
Min Temperature 66 °F 64 °F 59 °F (2000)
Cooling Degree Days 11    
Growing Degree Days 26 (Base 50)    
Moisture  
Dew Point 67 °F    
Average Humidity 75    
Maximum Humidity 100    
Minimum Humidity 42    
Precipitation  
Precipitation 0.00 in - - ()
Sea Level Pressure  
Sea Level Pressure 30.01 in    
Wind  
Wind Speed 3 mph ()    
Max Wind Speed 13 mph    
Max Gust Speed -    
Visibility 6.4 miles    
Events Fog    
Averages and records for this station are not official NWS values.
T = Trace of Precipitation, MM = Missing Value Source: Averaged Metar Reports

Daily Weather History Graph

Daily Weather History Graph

Search for Another Location

Airport or City:

Trip Planner

Search our weather history database for the weather conditions in past years. The results will help you decide how hot, cold, wet, or windy it might be!

Date:

Astronomy

Oct. 10, 2012 Rise Set
Actual Time 6:53 AM MDT 6:38 PM MDT
Civil Twilight 6:31 AM MDT 7:01 PM MDT
Nautical Twilight 6:05 AM MDT 7:26 PM MDT
Astronomical Twilight 5:39 AM MDT 7:52 PM MDT
Moon 2:08 AM MDT (10/10) 3:10 PM MDT (10/10)
Length of Visible Light 12h 29m
Length of Day
11h 44m
Waning Crescent, 26% of the Moon is Illuminated
Oct 10
Waning Crescent
Oct 15
New
Oct 21
First Quarter
Oct 29
Full
Nov 6
Last Quarter

Hourly Weather History & Observations

Time (MDT) Temp. Heat Index Dew Point Humidity Pressure Visibility Wind Dir Wind Speed Gust Speed Precip Events Conditions
2:30 AM 71 °F - 67 °F 82% 29.93 in 5 mi South 2.2 mph - -   Mist
5:30 AM 69 °F - 67 °F 89% 29.91 in 5 mi East 2.2 mph - -   Mist
6:00 AM 66.2 °F - 66.2 °F 100% 29.96 in 0.0 mi Calm Calm - N/A Fog Fog
6:52 AM 64.4 °F - 64.4 °F 100% 30.13 in 0.0 mi Calm Calm - N/A Fog Fog
8:06 AM 66.2 °F - 66.2 °F 100% 30.14 in 0.0 mi Calm Calm - N/A Fog Fog
8:35 AM 69 °F - 67 °F 89% 29.96 in 9 mi SSE 4.5 mph - -   Mist
8:47 AM 66.2 °F - 66.2 °F 100% 30.02 in 0.2 mi Calm Calm - N/A Fog Fog
9:13 AM 68.0 °F - 68.0 °F 100% 30.16 in 3.0 mi Calm Calm - N/A   Mostly Cloudy
9:52 AM 73.4 °F - 66.2 °F 78% 30.17 in 5.0 mi Calm Calm - N/A   Scattered Clouds
10:48 AM 77.0 °F - 64.4 °F 65% 30.18 in 8.0 mi Calm Calm - N/A   Scattered Clouds
11:35 AM 82 °F - 67 °F 51% 29.93 in 11 mi North 4.5 mph - -   Haze
11:48 AM 80.6 °F 82.7 °F 66.2 °F 61% 30.00 in 8.0 mi NNE 4.6 mph - N/A   Scattered Clouds
12:43 PM 84.2 °F 86.6 °F 66.2 °F 55% 30.12 in 8.0 mi Calm Calm - N/A   Scattered Clouds
1:53 PM 84.2 °F 86.6 °F 66.2 °F 55% 30.09 in 10.0 mi North 6.9 mph - N/A   Clear
2:30 PM 86 °F - 66 °F 42% 29.82 in 12 mi WSW 13.4 mph - -   Partly Cloudy
2:54 PM 84.2 °F 86.6 °F 66.2 °F 55% 29.88 in 10.0 mi North 8.1 mph - N/A   Clear
3:54 PM 84.2 °F 86.6 °F 66.2 °F 55% 30.05 in 10.0 mi North 9.2 mph - N/A   Clear
4:52 PM 80.6 °F 82.7 °F 66.2 °F 61% 30.05 in 10.0 mi North 9.2 mph - N/A   Clear
5:30 PM 81 °F - 69 °F 60% 29.82 in 12 mi West 13.4 mph - -   Partly Cloudy
6:52 PM 75.2 °F - 68.0 °F 78% 30.05 in 5.0 mi Calm Calm - N/A   Scattered Clouds
7:45 PM 71.6 °F - 66.2 °F 83% 30.07 in 5.0 mi NNE 4.6 mph - N/A   Scattered Clouds
8:32 PM 75 °F - 71 °F 82% 29.87 in 6 mi SE 4.5 mph - -  
11:33 PM 72 °F - 69 °F 89% 29.89 in 6 mi SE 4.5 mph - -   Mostly Cloudy